KD2BVA Weather Reports


Display with metric or nautical units.
time (UTC)temp
F
wind
direction
speed
MPH
gust
MPH
rain 1hr
in
rain 24hr
in
rain mn
in
humidity
%
barometer
mb
20260504185035 71 269 3.0 14.0 0.00 0.00 0.00 39 991.2
20260504184545 71 286 5.0 14.0 0.00 0.00 0.00 38 991.2
20260504184024 71 294 3.0 12.0 0.00 0.00 0.00 39 991.3
20260504183536 70 243 4.0 12.0 0.00 0.00 0.00 41 991.3
20260504183044 69 221 1.0 9.0 0.00 0.00 0.00 44 991.4
20260504182524 69 248 2.0 9.0 0.00 0.00 0.00 42 991.4
20260504182034 69 248 2.0 11.0 0.00 0.00 0.00 41 991.4
20260504181543 70 63 2.0 11.0 0.00 0.00 0.00 39 991.4
20260504181024 71 281 5.0 11.0 0.00 0.00 0.00 38 991.4
20260504180535 71 23 4.0 14.0 0.00 0.00 0.00 39 991.4
20260504180033 71 108 5.0 14.0 0.00 0.00 0.00 39 991.4
20260504175522 71 247 3.0 10.0 0.00 0.00 0.00 41 991.4
20260504175028 71 245 2.0 13.0 0.00 0.00 0.00 40 991.6
20260504174530 71 155 2.0 13.0 0.00 0.00 0.00 41 991.6
20260504174039 71 217 3.0 12.0 0.00 0.00 0.00 42 991.5
20260504173550 70 139 2.0 12.0 0.00 0.00 0.00 41 991.5
20260504173029 70 214 3.0 9.0 0.00 0.00 0.00 42 991.7
20260504172539 69 213 3.0 10.0 0.00 0.00 0.00 41 991.7
20260504172049 70 269 2.0 10.0 0.00 0.00 0.00 41 991.7
20260504171530 69 274 3.0 11.0 0.00 0.00 0.00 44 991.8
20260504171020 69 278 3.0 11.0 0.00 0.00 0.00 42 991.9
20260504170522 68 260 2.0 5.0 0.00 0.00 0.00 44 991.9
20260504151026 62 266 1.0 5.0 0.00 0.00 0.00 52 993.1
20260504150538 61 269 1.0 5.0 0.00 0.00 0.00 53 993.2
20260504141035 57 261 1.0 4.0 0.00 0.00 0.00 56 993.7
20260504140546 57 254 1.0 4.0 0.00 0.00 0.00 56 993.9
20260504130527 51 242 1.0 3.0 0.00 0.00 0.00 64 993.8
20260504050538 47 278 0.0 1.0 0.00 0.00 0.00 74 995.0
20260504045526 47 273 0.0 2.0 0.00 0.00 0.00 74 995.0
20260504045036 47 219 0.0 5.0 0.00 0.00 0.00 74 995.1
20260504044526 46 236 1.0 5.0 0.00 0.00 0.00 74 995.2
20260504044027 46 238 0.0 3.0 0.00 0.00 0.00 74 995.2
20260504043539 46 239 0.0 3.0 0.00 0.00 0.00 74 995.2
20260504043047 46 231 0.0 2.0 0.00 0.00 0.00 73 995.2
20260504042529 46 252 0.0 1.0 0.00 0.00 0.00 73 995.4
20260504042036 46 259 0.0 0.0 0.00 0.00 0.00 73 995.4
20260504041545 46 259 0.0 2.0 0.00 0.00 0.00 72 995.4
20260504041026 46 99 0.0 0.0 0.00 0.00 0.00 72 995.4
20260504040538 45 266 0.0 0.0 0.00 0.00 0.00 71 995.4
20260504040046 45 266 0.0 0.0 0.00 0.00 0.00 70 995.5
20260504035527 45 266 0.0 2.0 0.00 0.00 0.00 70 995.4
20260504035037 44 266 1.0 2.0 0.00 0.00 0.00 70 995.5
20260504034538 44 235 0.0 0.0 0.00 0.00 0.00 68 995.4
20260504034027 45 235 0.0 0.0 0.00 0.00 0.00 66 995.3
20260504033539 45 235 0.0 1.0 0.00 0.00 0.00 65 995.3
20260504033038 45 235 0.0 1.0 0.00 0.00 0.00 64 995.3
20260504032527 45 235 0.0 1.0 0.00 0.00 0.00 63 995.3
20260504032038 45 235 0.0 1.0 0.00 0.00 0.00 62 995.3
20260504031539 45 235 0.0 1.0 0.00 0.00 0.00 62 995.2
20260504031026 45 277 0.0 3.0 0.00 0.00 0.00 62 995.2
20260504030528 45 254 1.0 3.0 0.00 0.00 0.00 62 995.2
20260504030036 44 222 0.0 1.0 0.00 0.00 0.00 60 995.2
20260504025526 43 238 0.0 1.0 0.00 0.00 0.00 60 995.2
20260504025025 43 264 0.0 1.0 0.00 0.00 0.00 59 995.1
20260504024529 42 264 0.0 1.0 0.00 0.00 0.00 59 995.1
20260504024039 42 264 0.0 0.0 0.00 0.00 0.00 59 995.1
20260504023550 41 264 0.0 0.0 0.00 0.00 0.00 59 995.1
20260504023028 41 264 0.0 0.0 0.00 0.00 0.00 59 995.1
20260504022537 41 264 0.0 0.0 0.00 0.00 0.00 59 995.2
20260504022047 41 264 0.0 0.0 0.00 0.00 0.00 59 995.1
20260504021526 41 264 0.0 0.0 0.00 0.00 0.00 59 995.0
20260504021037 42 264 0.0 0.0 0.00 0.00 0.00 57 995.1
20260504020536 42 264 0.0 0.0 0.00 0.00 0.00 58 995.1
20260504020024 43 264 0.0 0.0 0.00 0.00 0.00 55 995.1
20260504015534 43 264 0.0 0.0 0.00 0.00 0.00 54 995.1
20260504015102 44 264 0.0 0.0 0.00 0.00 0.00 53 995.2
20260504014609 44 264 0.0 0.0 0.00 0.00 0.00 53 995.2
20260504014057 45 264 0.0 1.0 0.00 0.00 0.00 51 995.2
20260504013603 45 264 0.0 1.0 0.00 0.00 0.00 50 995.1
20260504013108 45 264 0.0 1.0 0.00 0.00 0.00 51 995.1
20260504012544 45 264 0.0 2.0 0.00 0.00 0.00 50 995.1
20260504012101 46 264 0.0 2.0 0.00 0.00 0.00 49 995.1
20260504011608 46 326 0.0 0.0 0.00 0.00 0.00 48 995.0
20260504011044 47 326 0.0 0.0 0.00 0.00 0.00 45 994.9
20260504010603 48 326 0.0 2.0 0.00 0.00 0.00 43 994.9
20260504010105 48 326 0.0 6.0 0.00 0.00 0.00 42 994.9
20260504005543 48 200 1.0 6.0 0.00 0.00 0.00 43 994.8
20260504005031 48 269 1.0 3.0 0.00 0.00 0.00 43 994.7
20260504004541 48 262 1.0 3.0 0.00 0.00 0.00 42 994.7
20260504004021 48 113 0.0 2.0 0.00 0.00 0.00 42 994.6
20260504003534 48 235 0.0 2.0 0.00 0.00 0.00 42 994.6
20260504003042 48 224 0.0 4.0 0.00 0.00 0.00 41 994.5
20260504002524 48 137 0.0 4.0 0.00 0.00 0.00 42 994.4
20260504002035 49 78 0.0 2.0 0.00 0.00 0.00 41 994.3
20260504001544 50 251 0.0 1.0 0.00 0.00 0.00 40 994.3
20260504001025 51 251 0.0 2.0 0.00 0.00 0.00 38 994.1
20260504000535 51 251 0.0 2.0 0.00 0.00 0.00 36 994.1
20260504000043 52 237 0.0 4.0 0.00 0.00 0.00 36 994.0
20260503235525 52 252 1.0 4.0 0.00 0.00 0.00 35 993.9
20260503235035 52 266 1.0 4.0 0.00 0.00 0.00 35 993.9
20260503234546 53 231 1.0 4.0 0.00 0.00 0.00 33 993.8
20260503234023 53 119 1.0 5.0 0.00 0.00 0.00 32 993.7
20260503233533 53 341 1.0 6.0 0.00 0.00 0.00 32 993.7
20260503233025 53 244 1.0 4.0 0.00 0.00 0.00 31 993.6
20260503232531 54 27 1.0 4.0 0.00 0.00 0.00 28 993.5
20260503232038 54 271 0.0 6.0 0.00 0.00 0.00 28 993.4
20260503231545 55 280 1.0 6.0 0.00 0.00 0.00 27 993.3
20260503231023 55 262 0.0 5.0 0.00 0.00 0.00 26 993.2
20260503230532 56 269 2.0 6.0 0.00 0.00 0.00 25 993.2
20260503230037 57 253 1.0 5.0 0.00 0.00 0.00 26 993.1
20260503225536 58 287 1.0 6.0 0.00 0.00 0.00 25 993.1
20260503225023 58 129 2.0 6.0 0.00 0.00 0.00 24 993.0
20260503224549 59 101 1.0 4.0 0.00 0.00 0.00 24 993.0
20260503224027 59 104 0.0 9.0 0.00 0.00 0.00 27 992.9
20260503223538 59 238 2.0 9.0 0.00 0.00 0.00 25 992.9
20260503223043 59 114 1.0 7.0 0.00 0.00 0.00 27 992.9
20260503222551 59 96 3.0 7.0 0.00 0.00 0.00 26 992.9
20260503222028 59 347 4.0 7.0 0.00 0.00 0.00 26 992.8
20260503221534 59 165 1.0 3.0 0.00 0.00 0.00 29 992.9
20260503221028 59 217 1.0 2.0 0.00 0.00 0.00 30 992.9
20260503220539 59 94 0.0 3.0 0.00 0.00 0.00 31 992.9
20260503220047 60 94 1.0 3.0 0.00 0.00 0.00 30 992.8
20260503215527 60 115 1.0 3.0 0.00 0.00 0.00 29 992.9
20260503215034 60 89 1.0 3.0 0.00 0.00 0.00 28 992.9
20260503214539 61 284 1.0 3.0 0.00 0.00 0.00 28 992.9
20260503214048 60 263 1.0 4.0 0.00 0.00 0.00 29 993.0
20260503213530 60 115 1.0 4.0 0.00 0.00 0.00 29 993.0
20260503213039 60 278 2.0 4.0 0.00 0.00 0.00 30 993.0
20260503212519 60 167 1.0 6.0 0.00 0.00 0.00 31 993.0
20260503212029 60 285 1.0 4.0 0.00 0.00 0.00 32 993.0
20260503211540 60 326 2.0 4.0 0.00 0.00 0.00 31 993.1
20260503211029 60 240 1.0 6.0 0.00 0.00 0.00 31 993.2
20260503210550 59 255 1.0 6.0 0.00 0.00 0.00 33 993.0
20260503210100 58 115 1.0 4.0 0.00 0.00 0.00 34 993.0
20260503205543 58 290 1.0 4.0 0.00 0.00 0.00 35 993.2
20260503205051 58 289 1.0 6.0 0.00 0.00 0.00 34 993.2
20260503204559 57 65 2.0 10.0 0.00 0.00 0.00 33 993.3
20260503204024 57 255 3.0 10.0 0.00 0.00 0.00 32 993.4
20260503203525 57 14 1.0 8.0 0.00 0.00 0.00 37 993.4
20260503203034 56 103 1.0 8.0 0.00 0.00 0.00 38 993.4
20260503202543 55 131 2.0 4.0 0.00 0.00 0.00 36 993.6
20260503202024 55 56 1.0 4.0 0.00 0.00 0.00 37 993.5
20260503201535 55 71 1.0 5.0 0.00 0.00 0.00 36 993.6
20260503201044 55 79 1.0 8.0 0.00 0.00 0.00 37 993.6
20260503200527 55 255 1.0 6.0 0.00 0.00 0.00 38 993.7
20260503200036 54 349 2.0 12.0 0.00 0.00 0.00 40 993.7
20260503195546 54 309 3.0 12.0 0.00 0.00 0.00 38 993.8
20260503195026 53 311 1.0 8.0 0.00 0.00 0.00 38 993.8
20260503194538 53 274 3.0 10.0 0.00 0.00 0.00 37 993.9
20260503194030 54 330 3.0 10.0 0.00 0.00 0.00 37 993.9
20260503193539 54 17 1.0 5.0 0.00 0.00 0.00 38 993.9
20260503193027 54 248 2.0 9.0 0.00 0.00 0.00 38 994.0
20260503192528 54 235 1.0 9.0 0.00 0.00 0.00 39 994.1
20260503192038 54 56 2.0 5.0 0.00 0.00 0.00 38 994.0
20260503191527 53 298 1.0 6.0 0.00 0.00 0.00 40 994.1
20260503191028 54 87 1.0 3.0 0.00 0.00 0.00 38 994.2
20260503190540 54 156 1.0 3.0 0.00 0.00 0.00 41 994.2
20260503190031 53 19 1.0 5.0 0.00 0.00 0.00 43 994.4
20260503185532 53 288 2.0 5.0 0.00 0.00 0.00 41 994.3